カタログに戻る

STARLINK-36141

運用中通信VLEO
NORAD 67057·PAYLOAD·🇺🇸 United States

打ち上げ Dec 11, 2025 から Cape Canaveral Space Force Station

Loading…

次のパス (今後24時間)

TLE

最新Source: CelesTrak SupGP

元期: Sep 14, 2026, 23:17 UTC

1 67057C 25294AD  26257.97062500  .00027883  00000+0  10098-2 0  2572
2 67057  43.0035  48.9331 0001472 273.3679 292.7318 15.27569590    13

AllMySatでSTARLINK-36141をリアルタイム追跡

Download on the App Store